GW3296 Weather Reports


time (UTC)temp
F
wind
direction
speed
knots
gust
knots
rain 1hr
in
rain 24hr
in
rain mn
in
humidity
%
barometer
mb
20260506080737 46 162 1.7 1.7 0.00 0.00 0.00 95 1013.4
20260506080233 46 175 1.7 1.7 0.00 0.00 0.00 95 1013.6
20260506073217 46 173 0.9 4.3 0.00 0.00 0.00 94 1013.5
20260506072714 46 213 0.9 1.7 0.00 0.00 0.00 94 1013.7
20260506072212 46 223 1.7 2.6 0.00 0.00 0.00 94 1013.4
20260506071709 46 253 2.6 2.6 0.00 0.00 0.00 94 1013.1
20260506071207 46 186 1.7 2.6 0.00 0.00 0.00 94 1013.3
20260506070703 46 216 0.9 0.9 0.00 0.00 0.00 94 1013.2
20260506070201 46 170 0.9 1.7 0.00 0.00 0.00 94 1012.7
20260506062137 46 182 0.0 0.9 0.00 0.00 0.00 94 1013.1
20260506061633 46 190 0.9 0.9 0.00 0.00 0.00 94 1012.9
20260506061131 46 184 0.9 0.9 0.00 0.00 0.00 94 1013.2
20260506060629 46 178 1.7 1.7 0.00 0.00 0.00 94 1013.3
20260506060126 46 176 0.9 1.7 0.00 0.00 0.00 94 1013.2
20260506051058 47 216 0.0 0.9 0.00 0.00 0.00 93 1012.8
20260506050556 47 197 0.0 1.7 0.00 0.00 0.00 93 1012.6
20260506045046 47 182 0.0 0.9 0.00 0.40 0.40 93 1012.4
20260506044544 47 156 0.9 0.9 0.05 0.40 0.40 93 1012.7
20260506044041 47 155 1.7 1.7 0.05 0.40 0.40 93 1012.6
20260506043538 47 168 0.9 1.7 0.00 0.39 0.39 93 1012.7
20260506043036 47 164 0.9 1.7 0.00 0.39 0.39 93 1012.7
20260506042535 47 171 2.6 4.3 0.00 0.39 0.39 93 1013.1
20260506042033 47 179 2.6 2.6 0.00 0.39 0.39 93 1013.2
20260506041531 47 168 0.9 0.9 0.00 0.39 0.39 93 1012.7
20260506041027 47 201 0.0 0.9 0.00 0.39 0.39 93 1013.3
20260506040525 47 178 0.9 1.7 0.00 0.39 0.39 92 1012.9
20260506040021 47 196 0.0 0.9 0.00 0.39 0.39 92 1012.9
20260506035518 47 155 1.7 1.7 0.00 0.39 0.39 92 1012.8
20260506035015 47 183 0.9 0.9 0.00 0.39 0.39 92 1013.2
20260506034512 48 211 0.0 0.9 0.00 0.39 0.39 92 1012.6
20260506034009 47 201 0.0 0.9 0.00 0.39 0.39 92 1012.8
20260506033507 47 213 0.0 0.9 0.00 0.39 0.39 92 1012.8
20260506033004 47 172 0.9 0.9 0.00 0.39 0.39 92 1012.9
20260506032501 47 188 0.0 0.9 0.00 0.39 0.39 92 1012.9
20260506031957 47 180 0.9 1.7 0.00 0.39 0.39 92 1012.9
20260506031455 47 174 0.9 4.3 0.00 0.39 0.39 92 1013.2
20260506030952 47 159 1.7 1.7 0.07 0.39 0.39 91 1013.1
20260506030450 47 187 0.0 0.9 0.00 0.38 0.38 91 1013.2
20260506025946 47 176 0.9 1.7 0.07 0.38 0.38 91 1013.2
20260506025443 47 190 0.0 0.9 0.00 0.37 0.37 91 1012.9
20260506024940 47 146 1.7 2.6 0.05 0.37 0.37 91 1012.9
20260506024437 47 170 0.9 0.9 0.07 0.36 0.36 91 1012.9
20260506023932 47 164 0.0 4.3 0.07 0.36 0.36 91 1012.8
20260506023430 47 191 0.0 0.9 0.05 0.35 0.35 91 1012.9
20260506022926 47 182 1.7 1.7 0.00 0.34 0.34 91 1012.8
20260506022424 47 177 1.7 1.7 0.00 0.34 0.34 91 1012.7
20260506021922 47 178 0.9 0.9 0.00 0.34 0.34 91 1012.6
20260506021419 47 170 0.9 1.7 0.00 0.34 0.34 91 1012.9
20260506020916 47 178 0.9 1.7 0.07 0.34 0.34 91 1012.7
20260506020414 47 176 0.9 1.7 0.00 0.33 0.33 91 1012.7
20260506015910 47 183 0.9 1.7 0.00 0.33 0.33 91 1012.5
20260506015408 47 177 0.9 1.7 0.00 0.33 0.33 91 1012.2
20260506014905 47 176 1.7 1.7 0.05 0.33 0.33 90 1012.3
20260506014402 47 178 0.9 1.7 0.00 0.32 0.32 90 1011.9
20260506013858 47 179 0.9 1.7 0.07 0.32 0.32 90 1012.0
20260506013356 47 180 0.9 1.7 0.07 0.32 0.32 90 1011.7
20260506012852 47 189 0.0 0.0 0.00 0.31 0.31 90 1011.4
20260506012349 47 189 0.0 0.0 0.00 0.31 0.31 90 1011.6
20260506011846 47 189 0.0 0.0 0.05 0.31 0.31 90 1011.3
20260506011343 47 191 0.0 0.0 0.05 0.31 0.31 90 1011.5
20260506010840 47 185 0.0 0.0 0.00 0.30 0.30 89 1011.6
20260506010338 47 179 0.0 0.9 0.00 0.30 0.30 89 1011.4
20260506005835 47 180 0.9 0.9 0.07 0.30 0.30 89 1011.7
20260506005332 47 194 0.0 0.0 0.05 0.29 0.29 89 1011.5
20260506004827 47 204 0.0 0.0 0.05 0.29 0.29 88 1011.4
20260506004326 47 211 0.0 0.0 0.00 0.28 0.28 88 1011.6
20260506003821 47 197 0.0 0.0 0.07 0.28 0.28 88 1011.5
20260506003318 48 205 0.0 0.9 0.00 0.27 0.27 88 1011.6
20260506002814 48 179 0.9 0.9 0.05 0.27 0.27 88 1011.5
20260506002311 48 199 0.0 0.0 0.00 0.26 0.26 87 1011.3
20260506001806 48 199 0.0 0.0 0.07 0.26 0.26 86 1011.0
20260506001304 48 196 0.0 0.0 0.07 0.26 0.26 85 1011.0
20260506000801 48 196 0.0 0.0 0.00 0.25 0.25 84 1010.9
20260506000258 48 207 0.0 0.0 0.00 0.25 0.25 83 1011.0
20260505235755 48 219 0.0 0.9 0.00 0.25 0.25 83 1011.1
20260505235253 48 211 0.9 1.7 0.00 0.25 0.25 83 1011.3
20260505234749 48 230 0.0 0.0 0.00 0.25 0.25 83 1011.0
20260505234247 48 251 0.9 2.6 0.00 0.25 0.25 83 1010.8
20260505233743 48 259 0.9 1.7 0.00 0.25 0.25 84 1010.8
20260505233242 49 27 2.6 2.6 0.00 0.25 0.25 84 1010.8
20260505232738 48 255 0.0 0.9 0.00 0.25 0.25 84 1010.8
20260505232236 48 34 0.9 2.6 0.07 0.25 0.25 83 1011.0
20260505231732 48 66 0.9 0.9 0.07 0.25 0.25 83 1010.8
20260505231231 48 54 0.9 2.6 0.00 0.24 0.24 83 1010.9
20260505230729 48 13 1.7 2.6 0.00 0.24 0.24 82 1011.2
20260505230226 48 49 0.9 2.6 0.00 0.24 0.24 82 1010.9
20260505225722 48 74 1.7 2.6 0.00 0.24 0.24 82 1011.1
20260505225219 48 37 0.9 1.7 0.00 0.24 0.24 82 1011.3
20260505224714 48 2 1.7 2.6 0.00 0.24 0.24 82 1011.2
20260505224212 48 43 0.0 1.7 0.00 0.24 0.24 82 1011.4
20260505223710 48 323 0.0 1.7 0.00 0.24 0.24 82 1011.2
20260505223206 49 19 1.7 1.7 0.00 0.24 0.24 82 1011.2
20260505222702 48 22 0.9 2.6 0.00 0.24 0.24 81 1011.4
20260505222158 48 131 0.0 0.9 0.00 0.24 0.24 82 1011.4
20260505221655 48 291 1.7 4.3 0.00 0.24 0.24 82 1011.3
20260505221152 48 26 0.9 1.7 0.00 0.24 0.24 82 1011.3
20260505220649 48 276 1.7 5.2 0.00 0.24 0.24 82 1011.1
20260505220147 49 5 1.7 1.7 0.00 0.24 0.24 82 1011.3
20260505215644 49 31 1.7 2.6 0.05 0.24 0.24 82 1011.4
20260505215142 49 307 2.6 2.6 0.05 0.24 0.24 82 1011.1
20260505214640 49 320 0.9 0.9 0.00 0.23 0.23 83 1011.3
20260505214137 49 11 1.7 1.7 0.00 0.23 0.23 83 1011.2
20260505213634 49 60 0.9 1.7 0.07 0.23 0.23 83 1011.3
20260505213131 49 350 2.6 4.3 0.07 0.23 0.23 83 1011.5
20260505212627 49 2 3.5 4.3 0.05 0.22 0.22 84 1011.4
20260505212125 49 325 0.0 1.7 0.05 0.22 0.22 84 1011.3
20260505211621 49 352 0.0 2.6 0.00 0.21 0.21 84 1011.2
20260505211119 49 39 2.6 5.2 0.00 0.21 0.21 83 1011.3
20260505210615 49 13 4.3 5.2 0.00 0.21 0.21 83 1011.2
20260505210112 49 359 2.6 4.3 0.07 0.21 0.21 83 1011.4
20260505205609 49 38 0.9 4.3 0.00 0.20 0.20 82 1011.5
20260505205107 49 3 2.6 6.1 0.00 0.20 0.20 82 1011.6
20260505204604 50 315 1.7 6.1 0.00 0.20 0.20 83 1011.7
20260505204102 49 348 6.1 7.0 0.00 0.20 0.20 83 1011.6
20260505203558 49 352 1.7 6.1 0.00 0.20 0.20 83 1011.6
20260505203055 50 353 1.7 2.6 0.00 0.20 0.20 83 1011.5
20260505202551 49 289 3.5 6.1 0.00 0.20 0.20 82 1011.9
20260505202047 49 333 2.6 6.1 0.00 0.20 0.20 82 1012.1
20260505201544 49 355 2.6 6.1 0.00 0.20 0.20 83 1011.9
20260505201042 50 347 2.6 7.0 0.00 0.20 0.20 83 1011.9
20260505200539 49 7 2.6 6.1 0.00 0.20 0.20 83 1011.9
20260505200036 50 61 2.6 4.3 0.00 0.20 0.20 83 1012.0
20260505195532 50 41 2.6 7.8 0.05 0.20 0.20 84 1012.1
20260505195030 50 19 5.2 7.0 0.05 0.20 0.20 84 1012.1
20260505194527 50 325 5.2 7.8 0.00 0.19 0.19 84 1012.4
20260505194022 50 344 1.7 2.6 0.00 0.19 0.19 84 1012.4
20260505193520 49 303 0.9 2.6 0.00 0.19 0.19 84 1012.4
20260505193017 49 342 5.2 6.1 0.00 0.19 0.19 84 1012.2
20260505192516 49 339 2.6 5.2 0.00 0.19 0.19 85 1012.2
20260505192013 49 358 4.3 5.2 0.00 0.19 0.19 85 1012.5
20260505191511 48 321 7.8 9.6 0.07 0.19 0.19 85 1012.4
20260505191009 49 8 2.6 7.0 0.05 0.18 0.18 86 1012.7
20260505190503 49 321 4.3 5.2 0.05 0.18 0.18 86 1012.8
20260505185958 49 251 2.6 5.2 0.07 0.17 0.17 86 1013.1
20260505185456 49 318 0.9 7.0 0.07 0.17 0.17 86 1013.2
20260505184952 49 45 0.9 4.3 0.05 0.16 0.16 86 1013.1
20260505184449 49 236 0.9 4.3 0.05 0.16 0.16 86 1012.9
20260505183945 49 266 2.6 7.0 0.00 0.15 0.15 85 1013.3
20260505183443 49 293 2.6 5.2 0.07 0.15 0.15 85 1012.8
20260505182939 49 313 0.9 5.2 0.07 0.15 0.15 85 1013.1
20260505182436 49 308 5.2 7.0 0.05 0.14 0.14 84 1012.8
20260505181932 49 314 3.5 6.1 0.05 0.14 0.14 84 1012.6
20260505181430 49 259 3.5 5.2 0.07 0.13 0.13 84 1012.8
20260505180927 49 347 3.5 5.2 0.07 0.13 0.13 83 1012.7
20260505180423 50 269 7.8 12.2 0.07 0.12 0.12 83 1012.8
20260505175920 50 264 2.6 5.2 0.12 0.12 0.12 82 1012.8
20260505175416 51 236 3.5 5.2 0.12 0.11 0.11 82 1012.7
20260505174912 50 2 1.7 6.1 0.00 0.09 0.09 80 1012.4
20260505174410 51 238 0.9 8.7 0.05 0.09 0.09 79 1012.5
20260505173906 51 277 2.6 4.3 0.00 0.08 0.08 78 1012.2
20260505173402 51 276 4.3 5.2 0.00 0.08 0.08 77 1012.3
20260505172900 51 328 1.7 6.1 0.00 0.08 0.08 75 1012.2
20260505172357 52 320 4.3 5.2 0.00 0.08 0.08 73 1012.2
20260505171857 52 32 1.7 4.3 0.00 0.08 0.08 73 1012.1
20260505171354 52 24 0.9 6.1 0.00 0.08 0.08 73 1011.8
20260505170850 52 359 5.2 8.7 0.00 0.08 0.08 72 1012.2
20260505170348 52 332 10.4 12.2 0.00 0.08 0.08 72 1012.2
20260505165843 52 336 3.5 7.0 0.00 0.08 0.08 72 1012.3
20260505165339 52 335 1.7 4.3 0.00 0.08 0.08 72 1012.1
20260505164834 52 340 2.6 4.3 0.00 0.08 0.08 72 1012.2
20260505164331 52 349 1.7 4.3 0.00 0.08 0.08 73 1011.9
20260505163830 51 266 3.5 7.8 0.00 0.08 0.08 74 1012.0
20260505163328 51 323 4.3 7.0 0.00 0.08 0.08 73 1011.9
20260505162826 52 282 4.3 7.8 0.00 0.08 0.08 72 1011.8
20260505162322 51 8 2.6 5.2 0.00 0.08 0.08 73 1012.0
20260505161819 51 82 0.9 2.6 0.00 0.08 0.08 72 1011.9
20260505161316 51 0 2.6 2.6 0.00 0.08 0.08 73 1011.9
20260505160814 51 47 0.9 7.0 0.00 0.08 0.08 72 1011.7
20260505160312 51 347 1.7 5.2 0.00 0.08 0.08 72 1011.8
20260505153250 51 20 2.6 5.2 0.00 0.08 0.08 72 1011.0
20260505152747 51 357 2.6 4.3 0.00 0.08 0.08 72 1010.7
20260505152243 51 4 4.3 7.0 0.00 0.08 0.08 73 1010.7
20260505151738 50 115 3.5 9.6 0.00 0.08 0.08 73 1010.8
20260505151236 50 16 4.3 5.2 0.00 0.08 0.08 74 1011.0
20260505150732 50 334 8.7 12.2 0.00 0.08 0.08 73 1010.7
20260505150229 50 350 7.8 13.0 0.00 0.08 0.08 73 1010.7
20260505140154 48 17 2.6 5.2 0.00 0.08 0.08 82 1010.5
20260505130118 49 26 1.7 1.7 0.12 0.03 0.03 74 1011.6
20260505124607 51 15 4.3 7.0 0.00 0.01 0.01 69 1011.8
20260505124104 51 358 7.8 8.7 0.00 0.01 0.01 70 1011.7
20260505123600 51 315 6.1 7.8 0.00 0.01 0.01 70 1011.6
20260505123057 51 355 5.2 7.8 0.00 0.01 0.01 71 1011.6
20260505122553 51 358 3.5 7.0 0.00 0.01 0.01 71 1011.3
20260505122051 50 304 2.6 6.1 0.00 0.01 0.01 72 1011.3
20260505121547 51 271 3.5 7.0 0.00 0.01 0.01 71 1011.3
20260505121044 51 293 5.2 12.2 0.00 0.01 0.01 70 1011.2
20260505120540 51 288 5.2 7.0 0.00 0.01 0.01 69 1011.0
20260505120036 51 305 6.1 7.0 0.00 0.01 0.01 69 1010.9
20260505115530 52 288 6.1 7.0 0.00 0.01 0.01 68 1010.5
20260505115028 52 259 4.3 12.2 0.00 0.01 0.01 64 1010.6
20260505114525 52 342 7.0 14.8 0.00 0.01 0.01 64 1010.2
20260505114021 52 340 7.0 15.6 0.00 0.01 0.01 65 1010.0
20260505113518 52 264 6.1 11.3 0.00 0.01 0.01 66 1009.6
20260505113014 53 20 4.3 11.3 0.00 0.01 0.01 69 1010.0
20260505112510 53 335 7.0 9.6 0.00 0.01 0.01 70 1009.7
20260505112008 53 37 4.3 7.0 0.00 0.01 0.01 71 1009.3
20260505111502 53 327 1.7 6.1 0.00 0.01 0.01 70 1009.1
20260505110959 53 273 1.7 4.3 0.00 0.01 0.01 71 1009.1
20260505110455 53 328 1.7 2.6 0.00 0.01 0.01 73 1009.2
20260505101927 54 228 1.7 4.3 0.00 0.01 0.01 68 1009.7
20260505101421 54 226 0.9 5.2 0.00 0.01 0.01 68 1009.4
20260505100917 54 320 2.6 5.2 0.00 0.01 0.01 68 1009.0
20260505100414 54 348 2.6 6.1 0.00 0.01 0.01 68 1008.9
20260505095909 54 287 4.3 7.0 0.00 0.01 0.01 69 1008.7
20260505095407 54 316 7.0 7.8 0.00 0.01 0.01 69 1008.9
20260505094903 54 323 4.3 7.0 0.00 0.01 0.01 71 1008.8
20260505094400 54 264 2.6 8.7 0.00 0.01 0.01 72 1008.9
20260505093855 54 306 4.3 6.1 0.00 0.01 0.01 74 1008.7
20260505093353 54 337 2.6 5.2 0.00 0.01 0.01 75 1008.6
20260505092850 54 1 4.3 6.1 0.00 0.01 0.01 76 1008.1
20260505092348 55 12 1.7 8.7 0.00 0.01 0.01 77 1008.1
20260505091845 55 313 3.5 9.6 0.00 0.01 0.01 77 1008.1
20260505091343 55 321 6.1 12.2 0.00 0.01 0.01 79 1008.1
20260505090841 55 291 2.6 6.1 0.00 0.01 0.01 81 1008.1
20260505090339 55 345 1.7 7.0 0.00 0.01 0.01 82 1008.1
20260505085835 55 310 3.5 5.2 0.00 0.01 0.01 83 1007.7
20260505085334 55 0 4.3 6.1 0.00 0.01 0.01 83 1008.0
20260505084831 55 268 2.6 5.2 0.00 0.01 0.01 83 1008.0
20260505084330 55 270 0.9 2.6 0.00 0.01 0.01 83 1007.8
20260505083826 55 275 2.6 5.2 0.00 0.01 0.01 84 1007.8
20260505083324 55 267 0.9 1.7 0.00 0.01 0.01 85 1007.6
20260505082820 55 346 0.9 4.3 0.00 0.01 0.01 86 1007.7
20260505082317 55 343 0.9 0.9 0.00 0.01 0.01 87 1007.4
20260505081813 55 291 1.7 4.3 0.00 0.01 0.01 89 1007.5
20260505081310 56 270 2.6 4.3 0.00 0.01 0.01 90 1007.1